DL1GMG-6 Weather Reports


Display with metric or nautical units.
time (UTC)temp
F
wind
direction
speed
MPH
gust
MPH
rain 1hr
in
rain 24hr
in
rain mn
in
humidity
%
barometer
mb
20210128050028 33 244 4.0 8.0 0.00 0.00 0.00 87 1001.9
20210128045021 33 249 2.0 4.0 0.00 0.00 0.00 87 1002.1
20210128044013 33 264 3.0 6.0 0.00 0.00 0.00 87 1002.3
20210128043024 33 250 3.0 5.0 0.00 0.00 0.00 87 1002.4
20210128042017 33 266 3.0 5.0 0.00 0.00 0.00 87 1002.6
20210128041008 33 273 3.0 6.0 0.00 0.00 0.00 87 1003.0
20210128040001 33 237 3.0 6.0 0.00 0.00 0.00 87 1003.3
20210128035018 33 256 3.0 8.0 0.00 0.00 0.00 87 1003.4
20210128034006 33 247 2.0 7.0 0.00 0.00 0.00 87 1003.3
20210128033000 33 234 1.0 4.0 0.00 0.00 0.00 87 1003.6
20210128032012 33 221 1.0 4.0 0.00 0.00 0.00 87 1003.7
20210128031020 33 267 0.0 3.0 0.00 0.00 0.00 86 1003.7
20210128030000 33 224 1.0 2.0 0.00 0.00 0.00 86 1003.7
20210128025010 33 230 1.0 2.0 0.00 0.00 0.00 86 1003.9
20210128024011 33 229 0.0 2.0 0.00 0.00 0.00 86 1003.7
20210128023011 33 248 1.0 4.0 0.00 0.00 0.00 86 1003.9
20210128022015 33 233 1.0 4.0 0.00 0.00 0.00 86 1004.1
20210128021011 33 229 1.0 3.0 0.00 0.00 0.00 86 1004.4
20210128020000 33 264 1.0 3.0 0.00 0.00 0.00 86 1004.5
20210128015031 32 263 1.0 4.0 0.00 0.00 0.00 86 1004.6
20210128014019 32 263 1.0 3.0 0.00 0.00 0.00 85 1004.5
20210128013000 32 269 1.0 3.0 0.00 0.00 0.00 85 1004.7
20210128012026 32 259 1.0 2.0 0.00 0.00 0.00 85 1004.7
20210128011004 32 266 0.0 2.0 0.00 0.00 0.00 85 1004.8
20210128010000 32 247 1.0 4.0 0.00 0.00 0.00 85 1004.7
20210128005009 32 258 0.0 2.0 0.00 0.00 0.00 85 1004.7
20210128004010 32 249 1.0 2.0 0.00 0.00 0.00 85 1004.8
20210128003020 32 255 1.0 3.0 0.00 0.00 0.00 85 1004.9
20210128002017 32 269 1.0 3.0 0.00 0.00 0.00 85 1004.9
20210128001000 32 280 1.0 2.0 0.00 0.00 0.00 85 1004.9
20210128000000 32 245 1.0 3.0 0.00 0.00 0.00 85 1005.1
20210127235001 32 274 1.0 2.0 0.00 0.00 0.00 85 1005.3
20210127234017 32 249 1.0 3.0 0.00 0.00 0.00 85 1005.3
20210127233001 32 255 1.0 3.0 0.00 0.00 0.00 84 1005.3
20210127232026 32 276 1.0 3.0 0.00 0.00 0.00 84 1005.4
20210127231024 32 262 2.0 2.0 0.00 0.00 0.00 84 1005.4
20210127230001 32 246 1.0 3.0 0.00 0.00 0.00 84 1005.5
20210127225011 31 226 1.0 4.0 0.00 0.00 0.00 84 1005.4
20210127224011 31 270 2.0 4.0 0.00 0.00 0.00 84 1005.7
20210127223006 31 262 1.0 4.0 0.00 0.00 0.00 84 1005.4
20210127222007 31 285 1.0 3.0 0.00 0.00 0.00 84 1005.5
20210127221010 31 240 1.0 2.0 0.00 0.00 0.00 84 1005.5
20210127220022 31 257 2.0 4.0 0.00 0.00 0.00 84 1005.4
20210127215024 31 264 1.0 3.0 0.00 0.00 0.00 84 1005.4
20210127214009 31 259 1.0 4.0 0.00 0.00 0.00 84 1005.4
20210127213019 31 235 2.0 4.0 0.00 0.00 0.00 84 1005.3
20210127212007 31 270 3.0 8.0 0.00 0.00 0.00 84 1005.2
20210127211010 31 241 3.0 6.0 0.00 0.00 0.00 84 1005.2
20210127210022 31 231 3.0 5.0 0.00 0.00 0.00 84 1005.2
20210127205000 31 248 2.0 4.0 0.00 0.00 0.00 83 1005.1
20210127204000 31 266 2.0 5.0 0.00 0.00 0.00 83 1005.1
20210127203000 31 260 2.0 5.0 0.00 0.00 0.00 83 1005.1
20210127202010 31 243 1.0 3.0 0.00 0.00 0.00 83 1005.1
20210127201028 31 239 2.0 4.0 0.00 0.00 0.00 83 1005.1
20210127200001 31 264 2.0 5.0 0.00 0.00 0.00 83 1004.8
20210127195000 31 232 2.0 4.0 0.00 0.00 0.00 83 1004.8
20210127194019 30 255 3.0 7.0 0.00 0.00 0.00 83 1004.8
20210127193028 30 256 3.0 7.0 0.00 0.00 0.00 83 1004.7
20210127192011 30 252 2.0 7.0 0.00 0.00 0.00 82 1004.8
20210127191011 30 226 2.0 3.0 0.00 0.00 0.00 82 1004.6
20210127190022 30 251 1.0 4.0 0.00 0.00 0.00 82 1004.7
20210127185022 30 236 2.0 4.0 0.00 0.00 0.00 82 1004.7
20210127184021 30 243 2.0 6.0 0.00 0.00 0.00 82 1004.7
20210127183000 30 257 2.0 4.0 0.00 0.00 0.00 82 1004.6
20210127182012 30 280 2.0 4.0 0.00 0.00 0.00 82 1004.6
20210127181007 30 262 2.0 4.0 0.00 0.00 0.00 81 1004.6
20210127180032 30 268 2.0 5.0 0.00 0.00 0.00 81 1004.5
20210127175001 30 248 2.0 5.0 0.00 0.00 0.00 81 1004.4
20210127174021 30 268 2.0 4.0 0.00 0.00 0.00 81 1004.6
20210127173022 30 282 2.0 4.0 0.00 0.00 0.00 81 1004.6
20210127172006 30 250 3.0 4.0 0.00 0.00 0.00 80 1004.6
20210127171001 30 260 2.0 4.0 0.00 0.00 0.00 80 1004.5
20210127170021 30 244 3.0 8.0 0.00 0.00 0.00 80 1004.6
20210127165024 30 241 3.0 8.0 0.00 0.00 0.00 80 1004.5
20210127164022 30 242 3.0 8.0 0.00 0.00 0.00 80 1004.5
20210127163010 30 250 4.0 8.0 0.00 0.00 0.00 79 1004.5
20210127162001 30 275 5.0 9.0 0.00 0.00 0.00 79 1004.5
20210127161026 30 270 4.0 9.0 0.00 0.00 0.00 79 1004.4
20210127160019 30 249 3.0 7.0 0.00 0.00 0.00 79 1004.4
20210127155012 30 238 5.0 8.0 0.00 0.00 0.00 79 1004.3
20210127154010 30 245 3.0 8.0 0.00 0.00 0.00 79 1004.3
20210127153020 30 256 4.0 7.0 0.00 0.00 0.00 79 1004.5
20210127152019 30 230 4.0 10.0 0.00 0.00 0.00 78 1004.5
20210127151002 30 261 5.0 7.0 0.00 0.00 0.00 77 1004.6
20210127150011 30 253 4.0 10.0 0.00 0.00 0.00 76 1004.7
20210127145009 30 240 4.0 8.0 0.00 0.00 0.00 74 1004.6
20210127144010 31 282 6.0 12.0 0.00 0.00 0.00 73 1004.7
20210127143018 31 251 5.0 9.0 0.00 0.00 0.00 72 1004.7
20210127142009 31 272 6.0 11.0 0.00 0.00 0.00 72 1004.7
20210127141009 31 235 6.0 11.0 0.00 0.00 0.00 72 1004.7
20210127140026 31 251 5.0 11.0 0.00 0.00 0.00 72 1004.8
20210127135013 30 233 5.0 11.0 0.00 0.01 0.00 73 1004.9
20210127134009 30 240 6.0 11.0 0.00 0.01 0.00 74 1004.9
20210127133001 30 223 4.0 8.0 0.00 0.01 0.00 75 1005.1
20210127132004 29 247 4.0 6.0 0.00 0.01 0.00 76 1005.4
20210127131021 29 200 4.0 6.0 0.00 0.01 0.00 78 1005.3
20210127130013 29 226 4.0 8.0 0.00 0.01 0.00 79 1005.6
20210127125001 29 254 4.0 8.0 0.00 0.01 0.00 80 1005.6
20210127124010 29 252 4.0 7.0 0.00 0.01 0.00 80 1005.9
20210127123017 28 235 4.0 8.0 0.00 0.01 0.00 79 1005.9
20210127122000 28 243 5.0 10.0 0.00 0.01 0.00 78 1006.2
20210127121021 28 235 5.0 10.0 0.00 0.01 0.00 78 1006.1
20210127120002 28 244 5.0 11.0 0.00 0.01 0.00 78 1006.4
20210127115011 28 227 5.0 10.0 0.00 0.01 0.00 79 1006.3
20210127114014 28 243 5.0 11.0 0.00 0.01 0.00 78 1006.4
20210127113000 28 246 4.0 8.0 0.00 0.01 0.00 78 1006.6
20210127112030 28 237 5.0 10.0 0.00 0.01 0.00 77 1006.6
20210127111025 28 205 4.0 5.0 0.00 0.01 0.00 76 1006.7
20210127110011 28 251 5.0 9.0 0.00 0.01 0.00 75 1006.7
20210127105038 29 240 4.0 5.0 0.00 0.01 0.00 75 1006.7
20210127104022 29 225 3.0 4.0 0.00 0.01 0.00 75 1006.9
20210127103017 29 222 3.0 4.0 0.00 0.01 0.00 76 1007.0
20210127102010 29 251 3.0 4.0 0.00 0.01 0.00 76 1006.9
20210127101011 29 260 2.0 4.0 0.00 0.01 0.00 76 1007.1
20210127100010 29 257 2.0 4.0 0.00 0.01 0.00 75 1007.1
20210127095001 29 272 3.0 6.0 0.00 0.01 0.00 74 1007.2
20210127094020 29 253 3.0 6.0 0.00 0.01 0.00 73 1007.2
20210127093031 29 261 4.0 8.0 0.00 0.01 0.00 73 1007.3
20210127092011 29 250 3.0 5.0 0.00 0.01 0.00 72 1007.3
20210127091009 29 262 3.0 6.0 0.00 0.01 0.00 71 1007.4
20210127090024 29 267 4.0 7.0 0.00 0.01 0.00 70 1007.4
20210127085010 29 272 5.0 9.0 0.00 0.01 0.00 69 1007.2
20210127084031 29 274 5.0 11.0 0.00 0.01 0.00 68 1007.1
20210127083019 28 249 4.0 8.0 0.00 0.01 0.00 70 1007.2
20210127082020 28 249 2.0 4.0 0.00 0.01 0.00 71 1007.1
20210127081019 28 252 2.0 4.0 0.00 0.01 0.00 71 1007.1
20210127080031 28 278 3.0 4.0 0.00 0.01 0.00 71 1007.2
20210127075019 27 270 3.0 4.0 0.00 0.01 0.00 72 1007.0
20210127074024 27 253 2.0 4.0 0.00 0.01 0.00 72 1006.9
20210127073011 27 246 2.0 4.0 0.00 0.01 0.00 73 1007.0
20210127072010 27 261 2.0 5.0 0.00 0.01 0.00 73 1007.0
20210127071004 27 263 2.0 4.0 0.00 0.01 0.00 74 1006.9
20210127070004 27 270 3.0 5.0 0.00 0.01 0.00 74 1006.9
20210127065000 26 275 2.0 5.0 0.00 0.01 0.00 74 1007.1
20210127064020 26 274 2.0 4.0 0.00 0.01 0.00 75 1007.2
20210127063022 26 270 2.0 5.0 0.00 0.01 0.00 75 1007.0
20210127062019 26 264 2.0 5.0 0.00 0.01 0.00 75 1007.1
20210127061007 26 261 2.0 4.0 0.00 0.01 0.00 76 1007.4
20210127060019 26 259 2.0 4.0 0.00 0.01 0.00 76 1007.2
20210127055000 26 274 2.0 4.0 0.00 0.01 0.00 76 1007.3
20210127054014 26 286 1.0 3.0 0.00 0.01 0.00 76 1007.4
20210127053024 26 285 2.0 4.0 0.00 0.01 0.00 76 1007.5
20210127052001 26 285 2.0 4.0 0.00 0.01 0.00 76 1007.7
20210127051000 26 302 2.0 4.0 0.00 0.01 0.00 76 1007.7